Flag for U.S.A. Weather past 2 weeks in Tyler, Texas, U.S.A.

48 °F


Feels Like: 48 °F
Forecast: 49 / 55 °F
Wind: No wind

Location: Tyler Pounds Field

Current Time: Nov 30, 2015 at 7:53:03 AM

Latest Report: Nov 30, 2015 at 7:00 AM

Visibility: 6 mi

Pressure: 30.01 "Hg

Humidity: 93%

Dew point: 46 °F

Location of TylerLocation

Historic Weather in Tyler — Graph


Tyler temperature yesterday

Maximum temperature yesterday: 50 °F (at 4:53 PM)
Minimum temperature yesterday: 44 °F (at 1:53 AM)
Average temperature yesterday: 47 °F

Past Weeks' High & Low Weather Summary

High76 °F (Nov 17, 3:53 AM)94% (Nov 16, 12:55 PM)30.35 "Hg (Nov 16, 12:55 PM)
Low32 °F (Nov 22, 6:53 AM)26% (Nov 23, 2:53 PM)29.50 "Hg (Nov 17, 5:53 AM)
Average56 °F72%30.07 "Hg
* Reported Nov 15 7:53 AM — Nov 30 7:00 AM, Tyler, Weather by CustomWeather, © 2015

Note: Actual official high and low records may vary slightly from our data, if they occured in-between our weather recording intervals... More about our weather records


Tyler weather history for previous 24 hours

Time TempWeatherWind HumidityBarometerVisibility
7:00 AM
Mon, Nov 30
48 °FFog.No wind93%30.01 "Hg6 mi
5:53 AM48 °FOvercast.3 mph89%29.99 "Hg10 mi
4:53 AM48 °FFog.No wind89%29.99 "Hg4 mi
3:53 AM48 °FFog.6 mph89%30.00 "Hg4 mi
2:53 AM48 °FLight rain. Fog.5 mph93%30.01 "Hg2 mi
1:53 AM48 °FLight rain. Fog.No wind93%30.01 "Hg1 mi
12:53 AM48 °FFog.3 mph93%30.02 "Hg5 mi
11:53 PM
Sun, Nov 29
48 °FFog.3 mph93%30.05 "Hg3 mi
10:53 PM49 °FLight rain. Fog.7 mph90%30.06 "Hg5 mi
9:53 PM49 °FLow clouds.6 mph90%30.08 "Hg10 mi
9:02 PM48 °FRain. Fog.8 mph93%30.06 "Hg5 mi
8:53 PM48 °FHeavy rain. Fog.6 mph93%30.06 "Hg2 mi
7:53 PM48 °FMostly cloudy.5 mph89%30.10 "Hg10 mi
6:53 PM49 °FLight rain. Mostly cloudy.7 mph90%30.10 "Hg10 mi
5:53 PM50 °FLight rain. Mostly cloudy.No wind89%30.08 "Hg8 mi
4:53 PM50 °FRain. Mostly cloudy.7 mph89%30.08 "Hg7 mi
3:53 PM49 °FRain. Fog.6 mph90%30.06 "Hg5 mi
2:53 PM49 °FLight rain. Mostly cloudy.10 mph90%30.08 "Hg10 mi
1:53 PM49 °FHeavy rain. Fog.3 mph90%30.10 "Hg1 mi
12:53 PM49 °FLight rain. Low clouds.3 mph90%30.11 "Hg10 mi
11:53 AM48 °FLight rain. Fog.No wind89%30.16 "Hg1 mi
11:02 AM47 °FLight rain. Fog.7 mph93%30.19 "Hg1 mi
9:53 AM46 °FLight rain. Fog.7 mph93%30.19 "Hg1 mi
8:53 AM46 °FLight rain. Fog.6 mph89%30.18 "Hg5 mi
7:53 AM46 °FLight rain. Fog.6 mph89%30.17 "Hg5 mi
7:01 AM45 °FLow clouds.7 mph93%30.17 "Hg8 mi
Weather by CustomWeather, © 2015

See weather overviewHow to use our weather pages